Weather History for Frederick, MD

Change the Weather History Date:

Wednesday, February 13, 2013

  Actual Average (KHGR) Record (KHGR)
Temperature  
Mean Temperature 32 °F -  
Max Temperature 41 °F 40 °F 53 °F (2011)
Min Temperature 24 °F 25 °F 15 °F (1997)
Degree Days  
Heating Degree Days 32    
Moisture  
Dew Point 30 °F    
Average Humidity 94    
Maximum Humidity 100    
Minimum Humidity 65    
Precipitation  
Precipitation 0.04 in - - ()
Sea Level Pressure  
Sea Level Pressure 29.86 in    
Wind  
Wind Speed 2 mph (North)    
Max Wind Speed 10 mph    
Max Gust Speed -    
Visibility 6 miles    
Events Rain , Snow    
Averages and records for this station are not official NWS values.
T = Trace of Precipitation, MM = Missing Value Source: NWS Daily Summary

Daily Weather History Graph

Daily Weather History Graph

Search for Another Location

Airport:

Trip Planner

Search our weather history database for the weather conditions in past years. The results will help you decide how hot, cold, wet, or windy it might be!

Date:

Astronomy

Feb. 13, 2013 Rise Set
Actual Time 7:03 AM EST 5:44 PM EST
Civil Twilight 6:36 AM EST 6:11 PM EST
Nautical Twilight 6:04 AM EST 6:43 PM EST
Astronomical Twilight 5:33 AM EST 7:14 PM EST
Moon 8:33 AM EST (2/13) 9:43 PM EST (2/13)
Length of Visible Light 11h 35m
Length of Day
10h 40m
Waxing Crescent, 13% of the Moon is Illuminated
Feb 13
Waxing Crescent
Feb 17
First Quarter
Feb 25
Full
Mar 4
Last Quarter
Mar 11
New

Hourly Weather History & Observations

Time (EST) Temp. Windchill Dew Point Humidity Pressure Visibility Wind Dir Wind Speed Gust Speed Precip Events Conditions
12:05 AM 32.0 °F 28.7 °F 28.4 °F 87% 29.99 in 10.0 mi North 3.5 mph - N/A   Clear
12:25 AM 30.2 °F - 28.4 °F 93% 29.99 in 10.0 mi Calm Calm - N/A   Clear
12:45 AM 30.2 °F - 28.4 °F 93% 29.99 in 10.0 mi Calm Calm - N/A   Clear
1:05 AM 30.2 °F 26.7 °F 28.4 °F 93% 29.99 in 10.0 mi North 3.5 mph - N/A   Clear
1:25 AM 30.2 °F - 28.4 °F 93% 29.99 in 10.0 mi Calm Calm - N/A   Clear
1:45 AM 28.4 °F - 28.4 °F 100% 29.98 in 10.0 mi Calm Calm - N/A   Clear
2:05 AM 28.4 °F - 28.4 °F 100% 29.97 in 10.0 mi Calm Calm - N/A   Clear
2:25 AM 28.4 °F - 28.4 °F 100% 29.95 in 7.0 mi Calm Calm - N/A   Clear
2:45 AM 26.6 °F 22.6 °F 26.6 °F 100% 29.96 in 7.0 mi NNW 3.5 mph - N/A   Clear
3:05 AM 26.6 °F 22.6 °F 26.6 °F 100% 29.95 in 7.0 mi NNE 3.5 mph - N/A   Clear
3:25 AM 26.6 °F - 26.6 °F 100% 29.94 in 7.0 mi Calm Calm - N/A   Clear
3:45 AM 28.4 °F - 28.4 °F 100% 29.95 in 7.0 mi Calm Calm - N/A   Clear
4:05 AM 26.6 °F - 26.6 °F 100% 29.94 in 7.0 mi Calm Calm - N/A   Clear
4:25 AM 26.6 °F - 26.6 °F 100% 29.94 in 7.0 mi Calm Calm - N/A   Clear
4:45 AM 26.6 °F - 26.6 °F 100% 29.94 in 7.0 mi Calm Calm - N/A   Clear
5:05 AM 26.6 °F - 26.6 °F 100% 29.94 in 7.0 mi Calm Calm - N/A   Clear
5:25 AM 26.6 °F - 26.6 °F 100% 29.93 in 7.0 mi Calm Calm - N/A   Clear
5:45 AM 24.8 °F - 24.8 °F 100% 29.93 in 7.0 mi Calm Calm - N/A   Clear
6:48 AM 26.6 °F - 26.6 °F 100% 29.93 in 7.0 mi Calm Calm - N/A   Clear
7:50 AM 28.4 °F - 28.4 °F 100% 29.91 in 7.0 mi Calm Calm - N/A   Clear
8:50 AM 30.2 °F - 28.4 °F 93% 29.92 in 7.0 mi Calm Calm - N/A   Mostly Cloudy
9:55 AM 33.8 °F 29.6 °F 32.0 °F 93% 29.89 in 10.0 mi North 4.6 mph - N/A   Overcast
11:50 AM 39.2 °F 37.0 °F 30.2 °F 70% 29.84 in 7.0 mi ENE 3.5 mph - N/A   Mostly Cloudy
12:50 PM 41.0 °F 35.8 °F 30.2 °F 65% 29.80 in 7.0 mi East 8.1 mph - N/A   Mostly Cloudy
1:52 PM 41.0 °F 36.4 °F 32.0 °F 70% 29.76 in 7.0 mi North 6.9 mph - N/A   Overcast
2:50 PM 39.2 °F 32.5 °F 30.2 °F 70% 29.72 in 7.0 mi North 10.4 mph - N/A   Overcast
3:52 PM 39.2 °F 33.6 °F 30.2 °F 70% 29.71 in 7.0 mi NNE 8.1 mph - N/A   Overcast
4:50 PM 39.2 °F 32.5 °F 32.0 °F 75% 29.70 in 7.0 mi NNE 10.4 mph - N/A Rain Light Rain
5:45 PM 37.4 °F 30.3 °F 35.6 °F 93% 29.71 in 4.0 mi North 10.4 mph - N/A Rain Light Rain
7:59 PM 32.0 °F 28.7 °F 32.0 °F 100% 29.75 in 1.0 mi North 3.5 mph - N/A Snow Heavy Snow
8:05 PM 32.0 °F 27.5 °F 32.0 °F 100% 29.75 in 1.0 mi North 4.6 mph - N/A Snow Light Snow
8:25 PM 32.0 °F 28.7 °F 32.0 °F 100% 29.75 in 1.2 mi North 3.5 mph - 0.01 in Snow Light Snow
8:45 PM 32.0 °F 27.5 °F 32.0 °F 100% 29.76 in 1.5 mi NNW 4.6 mph - 0.02 in   Overcast
9:05 PM 32.0 °F 27.5 °F 32.0 °F 100% 29.76 in 1.5 mi NNW 4.6 mph - N/A Snow Light Snow
9:25 PM 32.0 °F 27.5 °F 32.0 °F 100% 29.77 in 1.5 mi North 4.6 mph - 0.01 in Snow Light Snow
9:45 PM 32.0 °F 28.7 °F 32.0 °F 100% 29.77 in 1.5 mi NNW 3.5 mph - 0.02 in Snow Light Snow
10:05 PM 32.0 °F - 32.0 °F 100% 29.78 in 1.8 mi Calm Calm - N/A Rain Rain
10:25 PM 32.0 °F - 32.0 °F 100% 29.78 in 1.8 mi Calm Calm - N/A Rain Light Rain
10:45 PM 32.0 °F - 32.0 °F 100% 29.78 in 1.8 mi Calm Calm - N/A Snow Light Snow
11:05 PM 32.0 °F - 32.0 °F 100% 29.79 in 1.8 mi Calm Calm - N/A   Overcast
11:25 PM 32.0 °F - 32.0 °F 100% 29.80 in 1.5 mi Calm Calm - N/A   Overcast
11:45 PM 32.0 °F - 32.0 °F 100% 29.80 in 1.5 mi Calm Calm - N/A   Overcast